Location: Township of Marena
(38.1747°N, 99.6798°W)
Time: 12:04:58
(UTC+00:00)

Cosmos 2219 - Pass Details

Date: 26 October 2020
Orbit: 832 x 862 km, 71.1° (Epoch: 24 November)

Event Time Altitude Azimuth Distance (km) Brightness Sun altitude
Rises 01:47:37 0° 334° (NNW) 3,443 6.8 -24.3°
Reaches altitude 10° 01:50:06 10° 331° (NNW) 2,505 6.0 -24.8°
Maximum altitude 01:55:46 62° 252° (WSW) 965 3.6 -25.9°
Enters shadow 02:00:03 18° 176° (S) 1,992 5.0 -26.8°
